Location: Burla
(50.9568°N, 10.4983°E)
Time: 20:53:58
(UTC+00:00)

Cosmos 2228 Rocket - Pass Details

Date: 18 January 2026
Orbit: 612 x 647 km, 82.5° (Epoch: 14 February)

Event Time Altitude Azimuth Distance (km) Brightness Sun altitude
Exits shadow 05:05:50 - 352° (N) 2,652 6.1 -19.3°
Reaches altitude 10° 05:07:29 10° 356° (N) 1,988 5.5 -19.0°
Maximum altitude 05:11:50 61° 77° (ENE) 699 3.5 -18.4°
Drops below altitude 10° 05:16:09 10° 158° (SSE) 1,966 6.1 -17.7°
Sets 05:18:23 0° 162° (SSE) 2,866 6.9 -17.3°
